Regional Weather Roundup
Issued by NWS Kansas City/Pleasant Hill, MO

Home | Current Version | Previous Version | Text Only | Print | Product List | Glossary On
Versions: 1 2 3 4 5 6 7 8 9 10 11 12 13 14 15 16 17 18 19 20 21 22 23 24 25 26 27 28 29 30 31 32 33 34 35 36 37 38 39 40 41 42 43 44 45 46 47 48 49 50
000
ASUS43 KEAX 110710
RWREAX

WEATHER ROUNDUP FOR EASTERN KANSAS AND NORTHWEST MISSOURI
NATIONAL WEATHER SERVICE KANSAS CITY/PLEASANT HILL MO
100 AM CST SUN DEC 11 2016

KSZ040-057-103>105-MOZ028-029-037-043-110800-
...KANSAS CITY METROPOLITAN AREA...

CITY           SKY/WX    TMP DP  RH WIND       PRES   REMARKS
K.C. INTL      CLOUDY    40  25  55 S17G23    29.89F WCI  31
K.C. DOWNTOWN  CLOUDY    41  24  51 VRB7      29.91F
LEES SUMMIT    CLOUDY    37  22  54 SE9       29.92F WCI  30
OLATHE - IXD   CLOUDY    40  26  57 S17       29.89F WCI  31
OLATHE - OJC   CLOUDY    39  26  59 MISG      29.89F
LAWRENCE       CLOUDY    38  26  62 SE10      29.89F WCI  31

$$

MOZ001>008-011>017-020>025-030>033-038>040-044>046-053-054-110800-
...NORTHERN AND CENTRAL MISSOURI...

CITY           SKY/WX    TMP DP  RH WIND       PRES   REMARKS
ST. JOSEPH     CLOUDY    36  22  56 S12       29.89F WCI  28
MOSBY          CLOUDY    36  23  60 SE7       29.93F WCI  30
WARRENSBURG    CLOUDY    37  21  52 SE9       29.96F WCI  31
WHITEMAN AFB   CLOUDY    39  21  48 S12       29.96F WCI  32
CLINTON        CLOUDY    39  21  48 S12       29.99F WCI  32
SEDALIA        CLOUDY    38  19  46 S17       30.00F WCI  28
WARSAW         NOT AVBL
CHILLICOTHE      N/A     36  19  50 SE7       29.98F WCI  30
KIRKSVILLE     CLOUDY    33  19  56 SE13      30.00F WCI  24

$$

MOZ041-047>049-056>058-063>065-088>090-097-110800-
...EASTERN AND SOUTHERN MISSOURI...

CITY           SKY/WX    TMP DP  RH WIND       PRES   REMARKS
ST. LOUIS INTL NOT AVBL
SPIRIT OF STL  CLOUDY    37  18  46 SE5       30.14F WCI  33
COLUMBIA       CLOUDY    36  17  46 SE12      30.04F WCI  28
JEFFERSON CITY CLOUDY    37  18  46 SE8       30.06F WCI  31
ROLLA          CLOUDY    35  21  56 S14       30.06F WCI  26
OSAGE BEACH    CLOUDY    38  21  50 S12G20    30.05F WCI  30
SPRINGFIELD    CLOUDY    39  21  48 S17       30.00F WCI  30
BRANSON        CLOUDY    39  23  52 SE13      30.06F WCI  32
JOPLIN         CLOUDY    45  27  49 S20G26    29.98F
WEST PLAINS    CLOUDY    36  22  56 S13G21    30.13F WCI  27

$$

IAZ060-094-KSZ022-034>040-054-083-096-NEZ052-066-093-110800-
...KANSAS...SOUTHEAST NEBRASKA AND IOWA...

CITY           SKY/WX    TMP DP  RH WIND       PRES   REMARKS
TOPEKA         CLOUDY    38  26  62 SE8       29.86F WCI  32
MANHATTAN      CLOUDY    36  26  67 S5        29.80F WCI  32
EMPORIA        CLOUDY    39  30  70 S18       29.83F WCI  30
CHANUTE        CLOUDY    44  33  65 S20G32    29.90F
WICHITA        CLOUDY    42  35  76 S22G30    29.77F WCI  33
OMAHA          CLOUDY    31  19  61 SE14      29.84F WCI  21
LINCOLN        CLOUDY    32  21  64 SE8       29.81F WCI  25
FALLS CITY     CLOUDY    35  21  56 SE14      29.83F WCI  26
LAMONI         CLOUDY    32  19  58 SE8       29.92F WCI  25
DES MOINES     CLOUDY    28  20  71 E8        29.96F WCI  20

$$




USA.gov is the U.S. government's official web portal to all federal, state and local government web resources and services.